FW1683 Weather Reports


Display with metric or nautical units.
time (UTC)temp
F
wind
direction
speed
MPH
gust
MPH
rain 1hr
in
rain 24hr
in
rain mn
in
humidity
%
barometer
mb
20260504034008 64 180 1.0 2.0 0.00 0.00 0.00 81 1012.4
20260504033028 64 180 1.0 2.0 0.00 0.00 0.00 81 1012.5
20260504031008 64 212 1.0 2.0 0.00 0.00 0.00 79 1012.7
20260504030020 64 85 1.0 2.0 0.00 0.00 0.00 79 1012.8
20260504024010 64 44 2.0 3.0 0.00 0.00 0.00 80 1012.9
20260504023012 65 28 1.0 3.0 0.00 0.00 0.00 80 1012.8
20260504021008 64 45 1.0 2.0 0.00 0.00 0.00 79 1012.8
20260504020009 64 23 2.0 3.0 0.00 0.00 0.00 78 1012.8
20260504015008 64 358 2.0 4.0 0.00 0.00 0.00 78 1012.7
20260504014022 64 6 2.0 3.0 0.00 0.00 0.00 79 1012.7
20260504013010 64 351 2.0 4.0 0.00 0.00 0.00 79 1012.7
20260504012010 64 347 2.0 4.0 0.00 0.00 0.00 79 1012.9
20260504011009 64 349 2.0 3.0 0.00 0.00 0.00 80 1012.8
20260504005008 64 283 2.0 4.0 0.00 0.00 0.00 82 1012.8
20260504003026 64 285 1.0 2.0 0.00 0.00 0.00 82 1012.9
20260504001008 65 225 1.0 2.0 0.00 0.00 0.00 82 1013.2
20260504000011 64 225 1.0 2.0 0.00 0.00 0.00 82 1013.4
20260503234011 64 225 2.0 3.0 0.00 0.00 0.00 83 1013.5
20260503232009 64 225 2.0 3.0 0.00 0.00 0.00 83 1013.6
20260503231010 64 225 2.0 3.0 0.00 0.00 0.00 83 1013.6
20260503230008 64 225 2.0 3.0 0.00 0.00 0.00 82 1013.6
20260503225008 64 225 2.0 3.0 0.00 0.00 0.00 82 1013.6
20260503224010 64 222 1.0 3.0 0.00 0.00 0.00 81 1013.6
20260503223019 65 97 1.0 2.0 0.00 0.00 0.00 81 1013.6
20260503222007 65 90 0.0 1.0 0.00 0.00 0.00 80 1013.6
20260503221008 65 131 1.0 2.0 0.00 0.00 0.00 80 1013.6
20260503220019 65 97 2.0 3.0 0.00 0.00 0.00 80 1013.7
20260503215007 65 129 2.0 4.0 0.00 0.00 0.00 81 1013.9
20260503214008 65 137 3.0 5.0 0.00 0.00 0.00 81 1013.9
20260503213012 65 142 3.0 6.0 0.00 0.00 0.00 81 1013.9
20260503212010 65 189 2.0 4.0 0.00 0.00 0.00 80 1014.1
20260503210015 65 164 3.0 4.0 0.00 0.00 0.00 81 1014.0
20260503205010 65 134 3.0 4.0 0.00 0.00 0.00 81 1013.7
20260503204011 65 128 3.0 5.0 0.00 0.00 0.00 80 1013.6
20260503203025 65 129 4.0 6.0 0.00 0.00 0.00 80 1013.5
20260503202007 65 141 3.0 5.0 0.00 0.00 0.00 79 1013.2
20260503201019 65 125 4.0 6.0 0.00 0.00 0.00 79 1013.1
20260503195010 66 119 3.0 5.0 0.00 0.00 0.00 78 1013.0
20260503194008 66 85 3.0 4.0 0.00 0.00 0.00 78 1013.0
20260503193025 65 91 3.0 5.0 0.00 0.00 0.00 77 1012.7
20260503192008 66 100 4.0 6.0 0.00 0.00 0.00 77 1012.6
20260503191007 66 96 3.0 5.0 0.00 0.00 0.00 76 1012.8
20260503190010 66 88 4.0 6.0 0.00 0.00 0.00 75 1012.8
20260503185008 66 81 6.0 8.0 0.00 0.00 0.00 76 1012.8
20260503184009 66 81 5.0 7.0 0.00 0.00 0.00 74 1012.6
20260503183012 66 64 5.0 7.0 0.00 0.00 0.00 74 1012.7
20260503182009 66 72 5.0 9.0 0.00 0.00 0.00 74 1012.4
20260503181025 66 104 6.0 9.0 0.00 0.00 0.00 76 1012.6
20260503180024 66 86 6.0 10.0 0.00 0.00 0.00 73 1012.3
20260503175007 66 79 7.0 11.0 0.00 0.00 0.00 70 1012.3
20260503174008 66 77 6.0 10.0 0.00 0.00 0.00 70 1012.4
20260503173027 66 88 7.0 10.0 0.00 0.00 0.00 73 1012.3
20260503172008 67 81 7.0 10.0 0.00 0.00 0.00 73 1012.4
20260503171008 67 96 6.0 9.0 0.00 0.00 0.00 71 1012.6
20260503151009 69 105 6.0 9.0 0.00 0.00 0.00 64 1012.5
20260503131008 72 50 9.0 13.0 0.00 0.00 0.00 59 1013.7
20260503081010 64 110 5.0 8.0 0.00 0.00 0.00 85 1015.4
20260503072007 64 133 5.0 8.0 0.00 0.00 0.00 82 1015.1
20260503071009 64 120 5.0 8.0 0.00 0.00 0.00 82 1014.9
20260503055008 64 99 3.0 6.0 0.00 0.00 0.00 85 1014.5
20260503054008 64 108 4.0 7.0 0.00 0.00 0.00 85 1014.7
20260503053022 64 59 3.0 5.0 0.00 0.00 0.00 85 1014.6
20260503052009 64 34 4.0 6.0 0.00 0.00 0.00 86 1014.6
20260503051008 64 48 4.0 6.0 0.00 0.00 0.00 85 1014.6
20260503050010 64 46 4.0 7.0 0.00 0.00 0.00 85 1014.8
20260503045008 64 37 4.0 7.0 0.00 0.00 0.00 86 1014.7
20260503043012 64 32 5.0 8.0 0.00 0.00 0.00 87 1014.4
20260503042029 64 36 6.0 9.0 0.00 0.00 0.00 87 1014.5
20260503041008 64 20 5.0 8.0 0.00 0.00 0.00 88 1014.6
20260503040027 64 20 6.0 10.0 0.00 0.00 0.00 88 1014.6